GW0064 Weather Reports


Display with metric or nautical units.
time (UTC)temp
F
wind
direction
speed
MPH
gust
MPH
rain 1hr
in
rain 24hr
in
rain mn
in
humidity
%
barometer
mb
20260508155503 0 240 10.0 13.0 0.00 0.01 0.00 1012.1
20260508154502 0 205 7.0 14.0 0.00 0.01 0.00 1012.1
20260508154001 0 200 8.0 14.0 0.00 0.01 0.00 1012.2
20260508153502 0 227 8.0 13.0 0.00 0.01 0.00 1012.1
20260508153001 0 212 9.0 12.0 0.00 0.01 0.00 1012.1
20260508152501 0 240 5.0 8.0 0.00 0.01 0.00 1012.1
20260508152001 0 244 6.0 8.0 0.00 0.01 0.00 1012.1
20260508151502 0 261 5.0 9.0 0.00 0.01 0.00 1012.2
20260508150503 0 213 5.0 8.0 0.00 0.01 0.00 1012.3
20260508150005 0 259 4.0 10.0 0.00 0.01 0.00 1012.5
20260508145502 0 269 6.0 13.0 0.00 0.01 0.00 1012.4
20260508144000 0 245 7.0 12.0 0.00 0.01 0.00 1012.6
20260508143504 0 232 5.0 12.0 0.00 0.01 0.00 1012.6
20260508143000 0 219 5.0 9.0 0.00 0.01 0.00 1012.7
20260508142500 0 254 3.0 11.0 0.00 0.01 0.00 1012.7
20260508142001 0 256 6.0 13.0 0.00 0.01 0.00 1012.8
20260508141502 0 227 8.0 13.0 0.00 0.01 0.00 1012.9
20260508141002 0 171 7.0 12.0 0.00 0.01 0.00 1012.9
20260508140500 0 248 7.0 12.0 0.00 0.01 0.00 1012.9
20260508140004 0 264 6.0 10.0 0.00 0.01 0.00 1013.0
20260508135002 0 257 7.0 11.0 0.00 0.01 0.00 1013.3
20260508134501 0 250 5.0 9.0 0.00 0.01 0.00 1013.3
20260508134001 0 227 5.0 10.0 0.00 0.01 0.00 1013.3
20260508133501 0 239 4.0 10.0 0.00 0.01 0.00 1013.3
20260508133003 0 243 7.0 10.0 0.00 0.01 0.00 1013.3
20260508132500 0 241 4.0 9.0 0.00 0.01 0.00 1013.2
20260508132000 0 231 4.0 9.0 0.00 0.01 0.00 1013.1
20260508131500 0 246 6.0 9.0 0.00 0.01 0.00 1013.3
20260508131002 0 259 5.0 8.0 0.00 0.01 0.00 1013.3
20260508130501 0 257 3.0 7.0 0.00 0.01 0.00 1013.2
20260508130003 0 205 4.0 7.0 0.00 0.01 0.00 1013.2
20260508125502 0 221 2.0 6.0 0.00 0.01 0.00 1013.3
20260508125002 0 188 2.0 5.0 0.00 0.01 0.00 1013.3
20260508124000 0 238 1.0 4.0 0.00 0.01 0.00 1013.3
20260508123500 0 205 2.0 4.0 0.00 0.01 0.00 1013.4
20260508123002 0 200 2.0 4.0 0.00 0.01 0.00 1013.3
20260508122501 0 195 2.0 4.0 0.00 0.01 0.00 1013.2
20260508122001 0 180 2.0 3.0 0.00 0.01 0.00 1013.3
20260508121500 0 221 1.0 3.0 0.00 0.01 0.00 1013.2
20260508120500 0 155 1.0 2.0 0.00 0.01 0.00 1013.2
20260508120004 0 219 0.0 2.0 0.00 0.01 0.00 1013.2
20260508115501 0 145 1.0 3.0 0.00 0.01 0.00 1013.1
20260508115003 0 143 2.0 3.0 0.00 0.01 0.00 1013.1
20260508114501 0 180 1.0 2.0 0.00 0.01 0.00 1013.2
20260508114000 0 160 1.0 3.0 0.00 0.01 0.00 1013.3
20260508113500 0 222 2.0 3.0 0.00 0.01 0.00 1013.3
20260508112501 0 205 0.0 2.0 0.00 0.01 0.00 1013.2
20260508112001 0 203 1.0 2.0 0.00 0.01 0.00 1013.3
20260508111500 0 191 0.0 2.0 0.00 0.01 0.00 1013.1
20260508111003 0 191 1.0 2.0 0.00 0.01 0.00 1013.2
20260508110501 0 212 1.0 2.0 0.00 0.01 0.00 1013.2
20260508110003 0 225 1.0 2.0 0.00 0.01 0.00 1013.2
20260508105500 0 157 1.0 2.0 0.00 0.01 0.00 1013.1
20260508105001 0 221 1.0 2.0 0.00 0.01 0.00 1013.1
20260508104501 0 212 0.0 2.0 0.00 0.01 0.00 1013.1
20260508104000 0 212 0.0 2.0 0.00 0.01 0.00 1012.9
20260508103500 0 239 1.0 3.0 0.00 0.01 0.00 1013.1
20260508103002 0 251 1.0 3.0 0.00 0.01 0.00 1013.0
20260508102500 0 266 1.0 2.0 0.00 0.01 0.00 1013.0
20260508102000 0 262 0.0 3.0 0.00 0.01 0.00 1013.0
20260508101501 0 274 1.0 3.0 0.00 0.01 0.00 1013.0
20260508100500 0 282 1.0 4.0 0.00 0.01 0.00 1013.0
20260508100004 0 276 2.0 8.0 0.00 0.01 0.00 1013.0
20260508095500 0 279 3.0 8.0 0.00 0.01 0.00 1013.2
20260508095002 0 293 4.0 6.0 0.00 0.01 0.00 1013.2
20260508094500 0 290 3.0 7.0 0.00 0.01 0.00 1013.3
20260508094002 0 271 3.0 7.0 0.00 0.01 0.00 1013.2
20260508093501 0 318 4.0 6.0 0.00 0.01 0.00 1013.3
20260508093001 0 309 3.0 7.0 0.00 0.01 0.00 1013.3
20260508092002 0 344 6.0 10.0 0.00 0.01 0.00 1013.4
20260508091001 0 228 3.0 7.0 0.00 0.01 0.00 1012.6
20260508090501 0 214 3.0 7.0 0.00 0.01 0.00 1012.6
20260508090005 0 219 4.0 7.0 0.00 0.01 0.00 1012.7
20260508085500 0 213 3.0 7.0 0.00 0.01 0.00 1012.6
20260508085001 0 186 3.0 7.0 0.00 0.01 0.00 1012.6
20260508084501 0 179 2.0 6.0 0.00 0.01 0.00 1012.6
20260508083502 0 200 4.0 8.0 0.00 0.01 0.00 1012.6
20260508083000 0 224 4.0 8.0 0.00 0.01 0.00 1012.8
20260508082500 0 232 5.0 9.0 0.00 0.01 0.00 1012.8
20260508082002 0 222 4.0 8.0 0.00 0.01 0.00 1012.7
20260508081500 0 238 5.0 8.0 0.00 0.01 0.00 1012.7
20260508081001 0 198 4.0 10.0 0.00 0.01 0.00 1012.9
20260508080502 0 220 5.0 14.0 0.00 0.01 0.00 1012.9
20260508080006 0 213 8.0 14.0 0.00 0.01 0.00 1013.0
20260508075501 0 208 6.0 15.0 0.00 0.01 0.00 1013.0
20260508075000 0 237 9.0 22.0 0.00 0.01 0.00 1012.8
20260508074502 0 233 14.0 22.0 0.00 0.01 0.00 1013.0
20260508072959 0 232 10.0 15.0 0.00 0.01 0.00 1013.3
20260508072501 0 228 8.0 13.0 0.00 0.01 0.00 1013.3
20260508072000 0 240 6.0 11.0 0.00 0.01 0.00 1013.3
20260508071500 0 215 6.0 11.0 0.00 0.01 0.00 1013.3
20260508070459 0 261 6.0 11.0 0.00 0.01 0.00 1013.2
20260508070005 0 243 7.0 11.0 0.00 0.01 0.00 1013.2
20260508065000 0 238 6.0 13.0 0.00 0.01 0.00 1013.1
20260508064459 0 194 5.0 11.0 0.00 0.01 0.00 1013.0
20260508064001 0 266 6.0 12.0 0.00 0.01 0.00 1013.0
20260508063504 0 210 7.0 12.0 0.00 0.01 0.00 1013.1
20260508062959 0 246 7.0 11.0 0.00 0.01 0.00 1013.2
20260508062459 0 231 6.0 13.0 0.00 0.01 0.00 1013.2
20260508061959 0 243 6.0 13.0 0.00 0.01 0.00 1013.2
20260508061459 0 218 4.0 10.0 0.00 0.01 0.00 1013.1
20260508061002 0 236 4.0 11.0 0.00 0.01 0.00 1013.2
20260508060501 0 252 6.0 11.0 0.00 0.01 0.00 1013.2
20260508060003 0 272 6.0 10.0 0.00 0.01 0.00 1013.3
20260508054459 0 201 4.0 10.0 0.00 0.01 0.00 1013.3
20260508054001 0 226 4.0 12.0 0.00 0.01 0.00 1013.3
20260508053501 0 212 5.0 12.0 0.00 0.01 0.00 1013.3
20260508053000 0 256 6.0 12.0 0.00 0.01 0.00 1013.3
20260508052459 0 201 4.0 7.0 0.00 0.01 0.00 1013.3
20260508051959 0 212 3.0 8.0 0.00 0.01 0.00 1013.3
20260508051459 0 196 3.0 8.0 0.00 0.01 0.00 1013.4
20260508051002 0 223 4.0 9.0 0.00 0.01 0.00 1013.4
20260508050002 0 195 3.0 7.0 0.00 0.01 0.00 1013.3
20260508045502 0 261 4.0 7.0 0.00 0.01 0.00 1013.4
20260508044959 0 181 3.0 7.0 0.00 0.01 0.00 1013.3
20260508044502 0 210 4.0 7.0 0.00 0.01 0.00 1013.4
20260508043503 0 171 3.0 5.0 0.00 0.01 0.00 1013.3
20260508042503 0 226 3.0 7.0 0.00 0.01 0.00 1013.4
20260508042003 0 225 4.0 7.0 0.00 0.01 0.00 1013.3
20260508041502 0 177 4.0 7.0 0.00 0.01 0.00 1013.3
20260508041002 0 195 3.0 7.0 0.00 0.01 0.00 1013.3
20260508040502 0 205 5.0 7.0 0.00 0.01 0.00 1013.3
20260508040007 0 170 3.0 6.0 0.00 0.01 0.00 1013.4
20260508035502 0 212 2.0 5.0 0.00 0.01 0.01 1013.3
20260508035002 0 259 3.0 6.0 0.00 0.01 0.01 1013.4
20260508034503 0 210 2.0 7.0 0.00 0.01 0.01 1013.4
20260508034002 0 254 4.0 8.0 0.00 0.01 0.01 1013.5
20260508033502 0 233 4.0 8.0 0.00 0.01 0.01 1013.5
20260508033002 0 231 3.0 4.0 0.00 0.01 0.01 1013.5
20260508032504 0 240 2.0 4.0 0.00 0.01 0.01 1013.4
20260508032004 0 218 2.0 4.0 0.00 0.01 0.01 1013.4
20260508031502 0 274 2.0 5.0 0.00 0.01 0.01 1013.4
20260508030006 0 238 2.0 5.0 0.00 0.01 0.01 1013.3
20260508025502 0 156 2.0 5.0 0.00 0.01 0.01 1013.3
20260508025002 0 227 3.0 6.0 0.00 0.01 0.01 1013.2
20260508024003 0 196 2.0 6.0 0.00 0.01 0.01 1013.3
20260508023502 0 229 3.0 6.0 0.00 0.01 0.01 1013.2
20260508023002 0 212 3.0 6.0 0.00 0.01 0.01 1013.1
20260508022505 0 212 3.0 7.0 0.00 0.01 0.01 1013.1
20260508022004 0 206 4.0 7.0 0.00 0.01 0.01 1013.1
20260508021503 0 207 2.0 5.0 0.00 0.01 0.01 1013.0
20260508021003 0 207 2.0 6.0 0.00 0.01 0.01 1013.0
20260508020504 0 222 3.0 8.0 0.00 0.01 0.01 1013.0
20260508020005 0 223 4.0 8.0 0.00 0.01 0.01 1013.0
20260508015002 0 221 3.0 9.0 0.00 0.01 0.01 1012.8
20260508014502 0 169 3.0 9.0 0.00 0.01 0.01 1012.7
20260508014004 0 145 3.0 7.0 0.00 0.01 0.01 1012.7
20260508013504 0 236 3.0 6.0 0.00 0.01 0.01 1012.6
20260508013002 0 155 2.0 6.0 0.00 0.01 0.01 1012.7
20260508012002 0 210 2.0 5.0 0.00 0.01 0.01 1012.7
20260508011503 0 186 3.0 5.0 0.00 0.01 0.01 1012.6
20260508011004 0 159 3.0 7.0 0.00 0.01 0.01 1012.6
20260508010005 0 200 3.0 6.0 0.00 0.01 0.01 1012.6
20260508005505 0 160 2.0 7.0 0.00 0.01 0.01 1012.6
20260508005003 0 195 4.0 7.0 0.00 0.01 0.01 1012.7
20260508003503 0 233 4.0 9.0 0.00 0.01 0.01 1013.0
20260508003002 0 198 3.0 9.0 0.00 0.01 0.01 1013.0
20260508002502 0 214 4.0 9.0 0.00 0.01 0.01 1013.0
20260508002002 0 211 5.0 9.0 0.00 0.01 0.01 1013.0
20260508001504 0 227 3.0 7.0 0.00 0.01 0.01 1012.9
20260508001002 0 206 4.0 7.0 0.00 0.01 0.01 1012.9
20260508000502 0 181 4.0 8.0 0.00 0.01 0.01 1013.0
20260507235501 0 242 3.0 8.0 0.00 0.01 0.01 1013.1
20260507235001 0 259 3.0 7.0 0.00 0.01 0.01 1013.1
20260507234002 0 199 4.0 8.0 0.00 0.01 0.01 1013.2
20260507233002 0 247 4.0 8.0 0.00 0.01 0.01 1013.4
20260507232502 0 202 5.0 8.0 0.00 0.01 0.01 1013.4
20260507232002 0 266 5.0 8.0 0.01 0.01 0.01 1013.5
20260507231501 0 231 5.0 10.0 0.01 0.01 0.01 1013.6
20260507231001 0 251 8.0 11.0 0.01 0.01 0.01 1013.7
20260507230505 0 248 6.0 11.0 0.01 0.01 0.01 1013.8
20260507225502 0 255 5.0 8.0 0.01 0.01 0.01 1014.1
20260507225002 0 292 5.0 10.0 0.01 0.01 0.01 1014.1
20260507224501 0 264 7.0 10.0 0.01 0.01 0.01 1014.1
20260507224002 0 284 5.0 8.0 0.01 0.01 0.01 1014.1
20260507223501 0 284 4.0 11.0 0.01 0.01 0.01 1014.1
20260507223002 0 283 6.0 14.0 0.01 0.01 0.01 1014.2
20260507222503 0 297 9.0 20.0 0.01 0.01 0.01 1014.3
20260507221501 0 309 11.0 25.0 0.00 0.00 0.00 1014.3
20260507221003 0 324 15.0 25.0 0.00 0.00 0.00 1014.0
20260507220501 0 297 11.0 23.0 0.00 0.00 0.00 1013.7
20260507220007 0 273 3.0 10.0 0.00 0.00 0.00 1013.3
20260507215501 0 244 5.0 11.0 0.00 0.00 0.00 1013.1
20260507215001 0 227 6.0 9.0 0.00 0.00 0.00 1013.0
20260507214502 0 216 5.0 13.0 0.00 0.00 0.00 1013.0
20260507214003 0 256 8.0 13.0 0.00 0.00 0.00 1012.9
20260507213501 0 274 6.0 11.0 0.00 0.00 0.00 1012.8
20260507213002 0 278 6.0 12.0 0.00 0.00 0.00 1012.7
20260507212502 0 220 7.0 13.0 0.00 0.00 0.00 1012.8
20260507212002 0 247 7.0 13.0 0.00 0.00 0.00 1012.9
20260507211501 0 275 6.0 14.0 0.00 0.00 0.00 1012.8
20260507210501 0 314 7.0 15.0 0.00 0.00 0.00 1013.0
20260507210005 0 284 9.0 14.0 0.00 0.00 0.00 1013.1
20260507205002 0 252 7.0 11.0 0.00 0.00 0.00 1013.1
20260507204501 0 267 7.0 10.0 0.00 0.00 0.00 1013.2
20260507204001 0 280 5.0 12.0 0.00 0.00 0.00 1013.3
20260507203002 0 273 8.0 14.0 0.00 0.00 0.00 1013.2
20260507202501 0 238 9.0 14.0 0.00 0.00 0.00 1013.3
20260507202001 0 247 5.0 11.0 0.00 0.00 0.00 1013.3
20260507201501 0 234 7.0 12.0 0.00 0.00 0.00 1013.3
20260507200501 0 265 7.0 11.0 0.00 0.00 0.00 1013.5
20260507195502 0 278 6.0 13.0 0.00 0.00 0.00 1013.8
20260507195001 0 276 8.0 11.0 0.00 0.00 0.00 1013.8
20260507194504 0 283 8.0 11.0 0.00 0.00 0.00 1013.9
20260507193501 0 254 7.0 13.0 0.00 0.00 0.00 1013.9
20260507193002 0 290 5.0 11.0 0.00 0.00 0.00 1014.0
20260507192502 0 196 5.0 12.0 0.00 0.00 0.00 1014.0
20260507192002 0 319 6.0 12.0 0.00 0.00 0.00 1014.1
20260507191501 0 271 5.0 11.0 0.00 0.00 0.00 1014.2
20260507190502 0 234 4.0 11.0 0.00 0.00 0.00 1014.3
20260507190006 0 264 8.0 11.0 0.00 0.00 0.00 1014.3
20260507185002 0 222 6.0 12.0 0.00 0.00 0.00 1014.1
20260507184502 0 239 6.0 10.0 0.00 0.00 0.00 1014.2
20260507184002 0 300 4.0 11.0 0.00 0.00 0.00 1014.3
20260507183501 0 237 5.0 13.0 0.00 0.00 0.00 1014.5
20260507183001 0 271 6.0 13.0 0.00 0.00 0.00 1014.5
20260507182504 0 231 4.0 14.0 0.00 0.00 0.00 1014.4
20260507182001 0 214 5.0 14.0 0.00 0.00 0.00 1014.4
20260507181501 0 274 5.0 13.0 0.00 0.00 0.00 1014.6
20260507180503 0 304 5.0 11.0 0.00 0.00 0.00 1014.6
20260507180005 0 297 7.0 12.0 0.00 0.00 0.00 1014.8
20260507175501 0 221 6.0 10.0 0.00 0.00 0.00 1014.8
20260507175003 0 293 6.0 14.0 0.00 0.00 0.00 1014.9
20260507174503 0 297 7.0 14.0 0.00 0.00 0.00 1014.9
20260507174000 0 262 6.0 12.0 0.00 0.00 0.00 1014.9
20260507173501 0 320 5.0 11.0 0.00 0.00 0.00 1015.0
20260507173001 0 278 7.0 12.0 0.00 0.00 0.00 1015.1
20260507172503 0 293 6.0 12.0 0.00 0.00 0.00 1015.2
20260507172001 0 316 6.0 11.0 0.00 0.00 0.00 1015.3
20260507171501 0 276 6.0 12.0 0.00 0.00 0.00 1015.4
20260507171001 0 288 8.0 13.0 0.00 0.00 0.00 1015.4
20260507170005 0 325 8.0 14.0 0.00 0.00 0.00 1015.6
20260507165005 0 250 7.0 13.0 0.00 0.00 0.00 1015.7
20260507164501 0 271 9.0 14.0 0.00 0.00 0.00 1015.8
20260507164001 0 289 4.0 12.0 0.00 0.00 0.00 1015.9
20260507163501 0 282 7.0 14.0 0.00 0.00 0.00 1016.0
20260507163002 0 263 8.0 14.0 0.00 0.00 0.00 1015.9
20260507161501 0 308 9.0 12.0 0.00 0.00 0.00 1016.0
20260507161001 0 302 6.0 12.0 0.00 0.00 0.00 1016.1
20260507160503 0 281 8.0 12.0 0.00 0.00 0.00 1016.0
20260507160007 0 309 5.0 11.0 0.00 0.00 0.00 1016.1